Date String (YYYY-MM-DD hh:mm:ss) UTC,Instrument flags,Ambient pressure (hPa),Sample flow (lpm),Bypass flow (lpm),Sample temperature (°C),Ambient temperature (°C),ASC tube jacket temperature (°C),LED temperature (°C),Box temperature (°C),Sample RH (%),Span deviation,Mass concentration (μg/m³),Mass concentration (μg/m³),Mass concentration (μg/m³)
DateTimeUTC,F1_M11,P_M11,Q1_M11,Q2_M11,T1_M11,T2_M11,T3_M11,T4_M11,T5_M11,U1_M11,ZSPAN_M11,X0_M11,X2_M11,X1_M11
2022-01-24 01:00:00,,0823.1,5.00,0.00,26.8,26.1,00.0,34.9,28.5,08.0,0000.0,0007.39,0004.19,0003.72
2022-01-24 01:01:00,,0823.1,4.99,0.00,26.8,26.1,00.0,35.2,28.5,08.2,0000.0,0008.15,0004.32,0003.86
2022-01-24 01:02:00,,0823.1,5.02,0.00,26.8,26.1,00.0,35.3,28.5,08.1,0000.0,0008.52,0004.36,0003.95
2022-01-24 01:03:00,,0823.1,4.99,0.00,26.8,26.0,00.0,35.5,28.5,08.0,0000.0,0008.51,0004.47,0004.04
2022-01-24 01:04:00,,0823.1,4.99,0.00,26.8,26.0,00.0,35.5,28.5,07.9,0000.0,0008.54,0004.57,0004.12
2022-01-24 01:05:00,,0823.1,5.00,0.00,26.8,26.0,00.0,35.6,28.5,08.0,0000.0,0008.42,0004.61,0004.18
2022-01-24 01:06:00,,0823.1,5.01,0.00,26.8,26.0,00.0,35.6,28.5,08.0,0000.0,0008.32,0004.64,0004.22
2022-01-24 01:07:00,,0823.1,4.99,0.00,26.7,26.0,00.0,35.6,28.5,08.0,0000.0,0008.20,0004.66,0004.26
2022-01-24 01:08:00,,0823.1,5.01,0.00,26.7,26.0,00.0,35.7,28.5,08.1,0000.0,0008.68,0004.80,0004.41
2022-01-24 01:09:00,,0823.1,5.00,0.00,26.7,26.0,00.0,35.7,28.4,08.1,0000.0,0009.28,0004.91,0004.52
2022-01-24 01:10:00,,0823.1,5.01,0.00,26.7,25.9,00.0,35.7,28.4,08.1,0000.0,0009.55,0004.90,0004.52
2022-01-24 01:11:00,,0823.1,5.01,0.00,26.7,25.9,00.0,35.7,28.4,08.0,0000.0,0009.41,0004.89,0004.52
2022-01-24 01:12:00,,0823.1,4.99,0.00,26.7,25.9,00.0,35.7,28.4,08.0,0000.0,0009.07,0004.90,0004.54
2022-01-24 01:13:00,,0823.1,5.00,0.00,26.7,25.9,00.0,35.7,28.4,07.9,0000.0,0008.88,0004.95,0004.57
2022-01-24 01:14:00,,0823.1,5.00,0.00,26.7,25.9,00.0,35.7,28.4,07.9,0000.0,0008.77,0004.92,0004.60
2022-01-24 01:15:00,,0823.1,4.99,0.00,26.7,25.9,00.0,35.7,28.4,07.9,0000.0,0008.68,0004.91,0004.60
2022-01-24 01:16:00,,0823.2,5.01,0.00,26.6,25.9,00.0,35.6,28.4,07.9,0000.0,0009.15,0004.91,0004.61
2022-01-24 01:17:00,,0823.2,4.99,0.00,26.6,25.9,00.0,35.6,28.4,07.9,0000.0,0009.26,0004.92,0004.62
2022-01-24 01:18:00,,0823.2,5.01,0.00,26.6,25.8,00.0,35.6,28.3,07.9,0000.0,0009.27,0004.93,0004.63
2022-01-24 01:19:00,,0823.2,5.00,0.00,26.6,25.8,00.0,35.6,28.3,07.9,0000.0,0008.77,0004.91,0004.63
2022-01-24 01:20:00,,0823.1,5.00,0.00,26.6,25.8,00.0,35.6,28.3,08.0,0000.0,0008.61,0004.90,0004.65
2022-01-24 01:21:00,,0823.1,5.00,0.00,26.6,25.8,00.0,35.6,28.3,08.1,0000.0,0008.51,0004.90,0004.67
2022-01-24 01:22:00,,0823.2,5.00,0.00,26.6,25.8,00.0,35.6,28.3,08.2,0000.0,0008.56,0004.92,0004.68
2022-01-24 01:23:00,,0823.1,5.00,0.00,26.6,25.8,00.0,35.6,28.3,08.2,0000.0,0008.64,0004.92,0004.67
2022-01-24 01:24:00,,0823.2,5.01,0.00,26.5,25.8,00.0,35.6,28.2,08.2,0000.0,0008.66,0004.90,0004.64
2022-01-24 01:25:00,,0823.2,4.99,0.00,26.5,25.7,00.0,35.6,28.2,08.2,0000.0,0008.61,0004.87,0004.61
2022-01-24 01:26:00,,0823.2,5.02,0.00,26.5,25.7,00.0,35.6,28.2,08.2,0000.0,0008.62,0004.87,0004.60
2022-01-24 01:27:00,,0823.2,4.99,0.00,26.5,25.7,00.0,35.6,28.2,08.1,0000.0,0008.10,0004.85,0004.60
2022-01-24 01:28:00,,0823.1,5.00,0.00,26.5,25.7,00.0,35.6,28.2,08.0,0000.0,0008.06,0004.88,0004.61
2022-01-24 01:29:00,,0823.1,5.01,0.00,26.5,25.7,00.0,35.5,28.2,07.9,0000.0,0008.19,0004.92,0004.61
2022-01-24 01:30:00,,0823.1,5.00,0.00,26.5,25.7,00.0,35.5,28.2,07.9,0000.0,0008.42,0004.94,0004.62
2022-01-24 01:31:00,,0823.1,5.00,0.00,26.5,25.7,00.0,35.5,28.2,07.9,0000.0,0007.93,0004.93,0004.61
2022-01-24 01:32:00,,0823.1,5.00,0.00,26.4,25.7,00.0,35.5,28.2,07.9,0000.0,0007.80,0004.95,0004.62
2022-01-24 01:33:00,,0823.2,4.98,0.00,26.4,25.6,00.0,35.5,28.2,07.8,0000.0,0007.84,0004.97,0004.65
2022-01-24 01:34:00,,0823.2,5.02,0.00,26.4,25.6,00.0,35.5,28.2,07.8,0000.0,0007.89,0005.02,0004.72
2022-01-24 01:35:00,,0823.1,4.99,0.00,26.4,25.6,00.0,35.5,28.1,07.8,0000.0,0007.83,0005.06,0004.79
2022-01-24 01:36:00,,0823.1,5.01,0.00,26.4,25.6,00.0,35.5,28.1,07.9,0000.0,0007.96,0005.14,0004.85
2022-01-24 01:37:00,,0823.1,5.00,0.00,26.4,25.6,00.0,35.4,28.1,08.0,0000.0,0007.95,0005.17,0004.90
2022-01-24 01:38:00,,0823.2,5.00,0.00,26.4,25.6,00.0,35.4,28.1,08.2,0000.0,0008.20,0005.17,0004.90
2022-01-24 01:39:00,,0823.2,4.99,0.00,26.3,25.6,00.0,35.4,28.1,08.1,0000.0,0008.29,0005.17,0004.91
2022-01-24 01:40:00,,0823.2,5.00,0.00,26.3,25.6,00.0,35.4,28.1,08.2,0000.0,0008.18,0005.15,0004.91
2022-01-24 01:41:00,,0823.2,5.01,0.00,26.3,25.5,00.0,35.4,28.0,08.3,0000.0,0008.01,0005.14,0004.91
2022-01-24 01:42:00,,0823.2,4.99,0.00,26.3,25.5,00.0,35.4,28.0,08.2,0000.0,0008.05,0005.15,0004.92
2022-01-24 01:43:00,,0823.2,5.02,0.00,26.3,25.5,00.0,35.4,28.0,08.1,0000.0,0008.09,0005.16,0004.91
2022-01-24 01:44:00,,0823.2,4.98,0.00,26.3,25.5,00.0,35.4,28.0,08.1,0000.0,0008.03,0005.15,0004.89
2022-01-24 01:45:00,,0823.2,5.01,0.00,26.3,25.5,00.0,35.4,28.0,08.0,0000.0,0007.88,0005.11,0004.85
2022-01-24 01:46:00,,0823.2,4.99,0.00,26.3,25.5,00.0,35.4,28.0,08.0,0000.0,0007.89,0005.10,0004.83
2022-01-24 01:47:00,,0823.1,5.01,0.00,26.3,25.5,00.0,35.3,28.0,08.0,0000.0,0007.86,0005.09,0004.81
2022-01-24 01:48:00,,0823.1,5.00,0.00,26.2,25.4,00.0,35.3,28.0,08.2,0000.0,0007.89,0005.07,0004.78
2022-01-24 01:49:00,,0823.1,5.00,0.00,26.2,25.4,00.0,35.3,28.0,08.1,0000.0,0008.33,0005.07,0004.76
2022-01-24 01:50:00,,0823.1,5.01,0.00,26.2,25.4,00.0,35.3,27.9,08.1,0000.0,0008.41,0005.07,0004.77
2022-01-24 01:51:00,,0823.1,5.00,0.00,26.2,25.4,00.0,35.3,27.9,08.1,0000.0,0008.92,0005.09,0004.78
2022-01-24 01:52:00,,0823.1,5.00,0.00,26.2,25.4,00.0,35.3,27.9,08.1,0000.0,0009.47,0005.11,0004.79
2022-01-24 01:53:00,,0823.1,5.01,0.00,26.2,25.3,00.0,35.3,27.9,08.0,0000.0,0009.69,0005.15,0004.81
2022-01-24 01:54:00,,0823.1,4.99,0.00,26.1,25.3,00.0,35.2,27.9,08.1,0000.0,0009.85,0005.15,0004.81
2022-01-24 01:55:00,,0823.1,4.99,0.00,26.1,25.3,00.0,35.2,27.8,08.2,0000.0,0009.87,0005.13,0004.79
2022-01-24 01:56:00,,0823.1,5.00,0.00,26.1,25.3,00.0,35.2,27.8,08.1,0000.0,0009.95,0005.12,0004.77
2022-01-24 01:57:00,,0823.2,4.99,0.00,26.1,25.3,00.0,35.2,27.8,08.2,0000.0,0010.11,0005.09,0004.74
2022-01-24 01:58:00,,0823.2,5.01,0.00,26.1,25.3,00.0,35.2,27.8,08.4,0000.0,0010.22,0005.01,0004.67
2022-01-24 01:59:00,,0823.2,4.99,0.00,26.1,25.3,00.0,35.2,27.8,08.5,0000.0,0010.35,0004.96,0004.63
